• Join FlightAware (Why Join?)
  • Login
  • US Flag GB Flag 
08:03 EDT


 

Airport Tracker/Info


-or-


 

Live Flight TrackerFlight Track Log ✈ UAL623 ✈ 15-May-2013 ✈ KIAH - KBOS

Flight Track Log - Related Links

Times and Time Zones

All times are in EDT time to prevent confusion due to time zone crossing. See the UAL623 flight status page for this flight to view local times or setup timezone preferences in your user account.

Time Position Orientation Groundspeed Altitude Reporting Facility
EDT Latitude Longitude Course Direction KTS MPH feet Rate Location/Type
18:48 29.9767 -95.3008 30° Northeast 158 182 600  Level Houston Center
18:49 30.0333 -95.2797 18° North 272 313 2,700 1,500 Climbing Houston Center
18:50 30.1083 -95.2708 North 264 304 3,900 1,500 Climbing Houston Center
18:51 30.1881 -95.2500 13° North 287 330 5,800 2,340 Climbing Houston Center
18:52 30.2678 -95.2219 17° North 298 343 8,800 2,640 Climbing Houston Center
18:53 30.6974 -94.9851 30° Northeast  Level FlightAware Approximate
18:53 30.3697 -95.1881 16° North 312 359 11,300  Level Houston Center
18:54 30.4564 -95.1244 32° Northeast 361 415 13,700 2,880 Climbing Houston Center
18:55 30.5339 -95.0308 46° Northeast 396 456 17,300 3,120 Climbing Houston Center
18:56 30.5975 -94.9258 55° Northeast 398 458 20,200 2,640 Climbing Houston Center
18:57 30.6772 -94.7947 55° Northeast 415 478 22,800 2,040 Climbing Houston Center
18:58 30.7453 -94.6756 56° Northeast 438 504 24,500 1,440 Climbing Houston Center
18:59 30.8167 -94.5494 57° Northeast 464 534 25,800 1,500 Climbing Houston Center
19:00 30.9033 -94.4311 49° Northeast 481 554 27,600 1,500 Climbing Houston Center
19:00 30.9658 -94.3756 37° Northeast 471 542 28,100 720 Climbing Fort Worth Center
19:01 31.0125 -94.3364 36° Northeast 489 563 28,400 840 Climbing Houston Center
19:02 31.1522 -94.2183 36° Northeast 511 588 29,500 1,080 Climbing Houston Center
19:02 31.2011 -94.1736 38° Northeast 515 593 30,000 1,320 Climbing Fort Worth Center
19:03 31.2742 -94.1142 35° Northeast 538 619 30,900 1,560 Climbing Houston Center
19:04 31.3925 -94.0114 37° Northeast 535 616 32,700 1,500 Climbing Houston Center
19:04 31.4378 -93.9706 38° Northeast 531 611 33,000 180 Climbing Fort Worth Center
19:05 31.5539 -93.8689 37° Northeast 526 605 33,000 300 Level Fort Worth Center
19:06 31.6600 -93.7842 34° Northeast 521 600 33,600 960 Climbing Fort Worth Center
19:07 31.7742 -93.6844 37° Northeast 510 587 35,000 1,020 Climbing Fort Worth Center
19:08 31.8881 -93.5844 37° Northeast 510 587 35,700 480 Climbing Fort Worth Center
19:09 32.0039 -93.4817 37° Northeast 510 587 36,000 120 Climbing Fort Worth Center
19:10 32.1175 -93.3836 36° Northeast 510 587 36,000 420 Level Fort Worth Center
19:11 32.2431 -93.2625 39° Northeast 522 601 36,900 480 Climbing Fort Worth Center
19:12 32.3525 -93.1664 37° Northeast 517 595 37,000  Climbing Fort Worth Center
19:13 32.4661 -93.0653 37° Northeast 511 588 37,000  Level Fort Worth Center
19:14 32.5836 -92.9633 36° Northeast 511 588 37,000  Level Fort Worth Center
19:15 32.6947 -92.8617 38° Northeast 511 588 37,000  Level Fort Worth Center
19:16 32.8078 -92.7594 37° Northeast 511 588 37,000  Level Fort Worth Center
19:17 32.9250 -92.6569 36° Northeast 511 588 37,000  Level Fort Worth Center
19:18 33.0403 -92.5567 36° Northeast 511 588 37,000  Level Fort Worth Center
19:19 33.1508 -92.4539 38° Northeast 511 588 37,000  Level Fort Worth Center
19:21 33.2825 -92.3353 37° Northeast 510 587 37,000  Level Memphis Center
19:22 33.3947 -92.2333 37° Northeast 510 587 37,000  Level Memphis Center
19:23 33.5089 -92.1311 37° Northeast 510 587 37,000  Level Memphis Center
19:24 33.6169 -92.0261 39° Northeast 505 581 37,000  Level Memphis Center
19:25 33.7308 -91.9233 37° Northeast 505 581 37,000  Level Memphis Center
19:26 33.8450 -91.8203 37° Northeast 510 587 37,000  Level Memphis Center
19:27 33.9567 -91.7169 37° Northeast 510 587 37,000  Level Memphis Center
19:28 34.0578 -91.6183 39° Northeast 498 573 37,000  Level Memphis Center
19:29 34.1694 -91.5144 38° Northeast 498 573 37,000  Level Memphis Center
19:30 34.2811 -91.4078 38° Northeast 503 579 37,000  Level Memphis Center
19:31 34.4050 -91.2936 37° Northeast 503 579 37,000  Level Memphis Center
19:32 34.5186 -91.1889 37° Northeast 503 579 37,000  Level Memphis Center
19:33 34.6319 -91.0814 38° Northeast 511 588 37,000  Level Memphis Center
19:34 34.7431 -90.9764 38° Northeast 511 588 37,000  Level Memphis Center
19:35 34.8542 -90.8683 39° Northeast 511 588 37,000  Level Memphis Center
19:36 34.9669 -90.7625 38° Northeast 511 588 37,000  Level Memphis Center
19:37 35.0800 -90.6514 39° Northeast 511 588 37,000  Level Memphis Center
19:38 35.1928 -90.5425 38° Northeast 519 597 37,000  Level Memphis Center
19:39 35.2931 -90.4461 38° Northeast 514 592 37,000  Level Memphis Center
19:40 35.4058 -90.3367 38° Northeast 514 592 37,000  Level Memphis Center
19:41 35.5183 -90.2269 38° Northeast 514 592 37,000  Level Memphis Center
19:42 35.6286 -90.1169 39° Northeast 514 592 37,000  Level Memphis Center
19:43 35.7431 -89.9989 40° Northeast 495 570 37,000  Level Memphis Center
19:44 35.8511 -89.8908 39° Northeast 495 570 37,000  Level Memphis Center
19:45 35.9592 -89.7850 38° Northeast 495 570 37,000  Level Memphis Center
19:46 36.0692 -89.6764 39° Northeast 495 570 37,000  Level Memphis Center
19:47 36.1769 -89.5675 39° Northeast 495 570 37,000  Level Memphis Center
19:48 36.2719 -89.4561 43° Northeast 489 563 37,000  Level Memphis Center
19:49 36.3711 -89.3183 48° Northeast 500 575 37,000  Level Memphis Center
19:50 36.4492 -89.1986 51° Northeast 494 568 37,000  Level Memphis Center
19:51 36.5375 -89.0681 50° Northeast 494 568 37,000  Level Memphis Center
19:52 36.6236 -88.9400 50° Northeast 483 556 37,000  Level Memphis Center
19:53 36.7097 -88.8117 50° Northeast 483 556 37,000  Level Memphis Center
19:54 36.7975 -88.6781 51° Northeast 478 550 37,000  Level Memphis Center
19:55 36.8811 -88.5464 52° Northeast 478 550 37,000  Level Memphis Center
19:56 36.9686 -88.4094 51° Northeast 484 557 37,000  Level Memphis Center
19:57 37.1142 -88.1811 51° Northeast 501 577 37,000  Level Indianapolis Center
19:58 37.2019 -88.0447 51° Northeast 498 573 37,000  Level Indianapolis Center
19:59 37.2894 -87.9075 51° Northeast 496 571 37,000  Level Indianapolis Center
20:00 37.3778 -87.7719 51° Northeast 495 570 37,000  Level Indianapolis Center
20:01 37.4639 -87.6358 51° Northeast 493 567 37,000  Level Indianapolis Center
20:02 37.5489 -87.4994 52° Northeast 490 564 37,000  Level Indianapolis Center
20:03 37.6472 -87.3428 52° Northeast 484 557 37,000  Level Indianapolis Center
20:05 37.7319 -87.2086 51° Northeast 480 552 37,000  Level Indianapolis Center
20:06 37.8153 -87.0733 52° Northeast 486 559 37,000  Level Indianapolis Center
20:07 37.8972 -86.9397 52° Northeast 484 557 37,000 180 Level Indianapolis Center
20:08 37.9806 -86.8061 52° Northeast 486 559 37,400 540 Climbing Indianapolis Center
20:09 38.0631 -86.6708 52° Northeast 487 560 38,200 780 Climbing Indianapolis Center
20:10 38.1464 -86.5350 52° Northeast 491 565 39,000 360 Climbing Indianapolis Center
20:11 38.2428 -86.3758 52° Northeast 476 548 39,000  Level Indianapolis Center
20:12 38.3239 -86.2439 52° Northeast 473 544 39,000  Level Indianapolis Center
20:13 38.4164 -86.1253 45° Northeast 471 542 39,000  Level Indianapolis Center
20:14 38.5142 -86.0103 43° Northeast 476 548 39,000  Level Indianapolis Center
20:15 38.6114 -85.8947 43° Northeast 477 549 39,000  Level Indianapolis Center
20:16 38.7217 -85.7750 40° Northeast 477 549 39,000  Level Indianapolis Center
20:17 38.8219 -85.6650 41° Northeast 476 548 39,000  Level Indianapolis Center
20:18 38.9219 -85.5567 40° Northeast 475 547 39,000  Level Indianapolis Center
20:19 39.0211 -85.4531 39° Northeast 466 536 39,000  Level Indianapolis Center
20:20 39.1200 -85.3486 39° Northeast 463 533 39,000  Level Indianapolis Center
20:21 39.2356 -85.2244 40° Northeast 457 526 39,000  Level Indianapolis Center
20:22 39.3144 -85.0933 52° Northeast 467 537 39,000  Level Indianapolis Center
20:23 39.3864 -84.9550 56° Northeast 468 539 39,000  Level Indianapolis Center
20:24 39.4647 -84.8056 56° Northeast 468 539 39,000 -60 Level Indianapolis Center
20:25 39.5378 -84.6625 56° Northeast 469 540 38,900  Descending Indianapolis Center
20:26 39.6103 -84.5208 56° Northeast 469 540 39,000  Climbing Indianapolis Center
20:27 39.6836 -84.3772 56° Northeast 470 541 38,900 -60 Descending Indianapolis Center
20:28 39.7569 -84.2353 56° Northeast 470 541 38,900  Level Indianapolis Center
20:29 39.8314 -84.0928 56° Northeast 469 540 39,000  Climbing Indianapolis Center
20:30 39.9050 -83.9481 56° Northeast 472 543 39,000  Level Indianapolis Center
20:31 39.9778 -83.8053 56° Northeast 467 537 39,000  Level Indianapolis Center
20:32 40.0517 -83.6597 56° Northeast 469 540 39,000 -60 Level Indianapolis Center
20:33 40.1258 -83.5139 56° Northeast 472 543 38,900  Descending Indianapolis Center
20:34 40.1989 -83.3686 57° Northeast 470 541 39,000  Climbing Indianapolis Center
20:35 40.2714 -83.2253 56° Northeast 468 539 38,900  Descending Indianapolis Center
20:36 40.3428 -83.0817 57° Northeast 466 536 39,000  Climbing Indianapolis Center
20:37 40.4253 -82.9133 57° Northeast 466 536 39,000 -60 Level Indianapolis Center
20:38 40.4961 -82.7692 57° Northeast 465 535 38,900  Descending Indianapolis Center
20:39 40.5672 -82.6256 57° Northeast 465 535 39,000  Climbing Indianapolis Center
20:40 40.6364 -82.4833 57° Northeast 470 541 39,000  Level Indianapolis Center
20:41 40.6586 -82.4361 58° Northeast 458 527 39,000  Level Cleveland Center
20:42 40.7275 -82.2928 58° Northeast 458 527 39,000  Level Cleveland Center
20:43 40.7986 -82.1492 57° Northeast 458 527 39,000  Level Cleveland Center
20:44 40.8672 -82.0025 58° Northeast 463 533 39,000  Level Cleveland Center
20:45 40.9442 -81.8422 58° Northeast 463 533 39,000  Level Cleveland Center
20:46 41.0144 -81.6975 57° Northeast 463 533 39,000  Level Cleveland Center
20:47 41.0825 -81.5472 59° Northeast 468 539 39,000  Level Cleveland Center
20:48 41.1503 -81.4158 56° Northeast 474 545 39,000  Level Cleveland Center
20:49 41.2222 -81.2511 60° Northeast 474 545 39,000  Level Cleveland Center
20:50 41.2939 -81.1028 57° Northeast 474 545 39,000  Level Cleveland Center
20:51 41.3633 -80.9511 59° Northeast 474 545 39,000  Level Cleveland Center
20:52 41.4344 -80.8047 57° Northeast 474 545 39,000  Level Cleveland Center
20:53 41.5033 -80.6553 58° Northeast 479 551 39,000  Level Cleveland Center
20:54 41.5722 -80.5025 59° Northeast 474 545 39,000  Level Cleveland Center
20:55 41.6428 -80.3469 59° Northeast 479 551 39,000  Level Cleveland Center
20:56 41.7092 -80.1936 60° Northeast 479 551 39,000  Level Cleveland Center
20:57 41.7564 -80.0236 70° East 474 545 39,000  Level Cleveland Center
20:58 41.8014 -79.8478 71° East 483 556 39,000  Level Cleveland Center
20:59 41.8397 -79.6747 73° East 492 566 39,000  Level Cleveland Center
21:00 41.8800 -79.5206 71° East 492 566 39,000  Level Cleveland Center
21:01 41.9219 -79.3414 72° East 492 566 39,000  Level Cleveland Center
21:02 41.9636 -79.1617 73° East 492 566 39,000  Level Cleveland Center
21:03 42.0050 -78.9819 73° East 503 579 39,000  Level Cleveland Center
21:04 42.0483 -78.7992 72° East 503 579 39,000  Level Cleveland Center
21:05 42.0892 -78.6161 73° East 503 579 39,000  Level Cleveland Center
21:06 42.1297 -78.4331 73° East 503 579 39,000  Level Cleveland Center
21:07 42.1778 -78.2350 72° East 508 585 39,000  Level Cleveland Center
21:08 42.2178 -78.0514 74° East 503 579 39,000  Level Cleveland Center
21:09 42.2594 -77.8644 73° East 503 579 39,000  Level Cleveland Center
21:10 42.2986 -77.6831 74° East 503 579 39,000  Level Cleveland Center
21:11 42.3397 -77.4958 73° East 508 585 39,000  Level Cleveland Center
21:13 42.4261 -77.0875 74° East 511 588 39,000  Level Boston Center
21:14 42.4525 -76.8981 79° East 511 588 39,000  Level Boston Center
21:15 42.4747 -76.7025 81° East 511 588 39,000  Level Boston Center
21:16 42.4878 -76.5119 85° East 516 594 39,000  Level Boston Center
21:17 42.4928 -76.3150 88° East 516 594 39,000  Level Boston Center
21:18 42.5006 -76.1381 87° East 516 594 39,000  Level Boston Center
21:19 42.5047 -75.9411 88° East 516 594 39,000 -60 Level Boston Center
21:20 42.5128 -75.7442 87° East 516 594 38,900  Descending Boston Center
21:21 42.5153 -75.5839 89° East 516 594 39,000  Climbing Boston Center
21:22 42.5194 -75.3472 89° East 521 600 39,000 -60 Level Boston Center
21:23 42.5244 -75.1503 88° East 521 600 38,900 -60 Descending Boston Center
21:24 42.5267 -74.9561 89° East 515 593 38,900  Level Boston Center
21:25 42.5308 -74.7617 88° East 515 593 39,000  Climbing Boston Center
21:26 42.5328 -74.5644 89° East 515 593 38,900  Descending Boston Center
21:27 42.5403 -74.3703 87° East 515 593 39,000  Climbing Boston Center
21:28 42.5414 -74.1758 89° East 515 593 39,000  Level Boston Center
21:29 42.5442 -73.9789 89° East 515 593 39,000  Level Boston Center
21:30 42.5467 -73.7844 89° East 515 593 39,000 -300 Level Boston Center
21:31 42.5467 -73.5869 90° East 515 593 38,400 -1,500 Descending Boston Center
21:32 42.5486 -73.3728 89° East 515 593 36,100 -2,940 Descending Boston Center
21:33 42.5500 -73.1814 89° East 528 608 32,600 -3,540 Descending Boston Center
21:34 42.5492 -72.9839 90° East 533 613 29,100 -3,300 Descending Boston Center
21:35 42.5500 -72.7839 90° East 533 613 26,100 -2,760 Descending Boston Center
21:36 42.5483 -72.5894 91° East 526 605 23,100 -2,820 Descending Boston Center
21:37 42.5464 -72.3556 91° East 519 597 20,000 -2,940 Descending Boston Center
21:38 42.5458 -72.1667 90° East 480 552 17,300 -2,520 Descending Boston Center
21:39 42.5392 -71.9919 93° East 474 545 15,000 -2,340 Descending Boston Center
21:40 42.5239 -71.8231 97° East 458 527 12,700 -2,040 Descending Boston Center
21:41 42.5083 -71.6628 97° East 439 505 11,000 -1,200 Descending Boston Center
21:42 42.5000 -71.5333 95° East 386 444 10,600 -660 Descending KA90
21:43 42.4833 -71.4167 101° East 345 397 9,900 -1,140 Descending KA90
21:44 42.4667 -71.2833 100° East 330 380 8,400 -1,380 Descending KA90
21:45 42.5000 -71.1667 69° East 316 364 7,100 -1,200 Descending KA90
21:46 42.5333 -71.0667 66° East 309 356 6,000 -900 Descending KA90
21:47 42.5833 -71.0167 36° Northeast 241 277 5,400 -1,320 Descending KA90
21:48 42.5667 -70.9333 105° East 234 269 3,300 -1,200 Descending KA90
21:49 42.5167 -70.9333 180° South 180 207 3,000 -360 Descending KA90